TimeMDT,TemperatureF,Dew PointF,Humidity,Sea Level PressureIn,VisibilityMPH,Wind Direction,Wind SpeedMPH,Gust SpeedMPH,PrecipitationIn,Events,Conditions,WindDirDegrees,DateUTC
12:15 AM,60.8,33.8,36,29.97,10.0,NW,23.0,27.6,N/A,,Clear,320,2013-06-20 06:15:00
12:35 AM,59.0,35.6,42,29.97,10.0,NW,21.9,-,N/A,,Clear,320,2013-06-20 06:35:00
12:55 AM,59.0,35.6,42,29.97,10.0,NW,20.7,-,N/A,,Clear,320,2013-06-20 06:55:00
1:15 AM,57.2,35.6,44,29.97,10.0,NW,18.4,21.9,N/A,,Clear,320,2013-06-20 07:15:00
1:35 AM,57.2,35.6,44,29.97,10.0,NW,17.3,20.7,N/A,,Clear,320,2013-06-20 07:35:00
1:55 AM,57.2,35.6,44,29.97,10.0,NW,16.1,21.9,N/A,,Clear,320,2013-06-20 07:55:00
2:15 AM,55.4,28.4,36,29.99,10.0,NNW,11.5,-,N/A,,Clear,340,2013-06-20 08:15:00
2:35 AM,53.6,28.4,38,29.99,10.0,North,8.1,-,N/A,,Clear,10,2013-06-20 08:35:00
2:55 AM,51.8,30.2,44,30.00,10.0,ENE,5.8,-,N/A,,Clear,60,2013-06-20 08:55:00
3:15 AM,51.8,32.0,47,30.00,10.0,East,4.6,-,N/A,,Clear,80,2013-06-20 09:15:00
3:35 AM,51.8,30.2,44,30.01,10.0,Calm,Calm,-,N/A,,Clear,0,2013-06-20 09:35:00
3:55 AM,51.8,30.2,44,30.01,10.0,Calm,Calm,-,N/A,,Clear,0,2013-06-20 09:55:00
4:15 AM,53.6,32.0,44,30.01,10.0,Calm,Calm,-,N/A,,Clear,0,2013-06-20 10:15:00
4:35 AM,53.6,33.8,47,30.01,10.0,South,5.8,-,N/A,,Clear,180,2013-06-20 10:35:00
4:55 AM,51.8,33.8,50,30.01,10.0,South,4.6,-,N/A,,Clear,170,2013-06-20 10:55:00
5:15 AM,50.0,33.8,54,30.01,10.0,SSE,6.9,-,N/A,,Clear,150,2013-06-20 11:15:00
5:35 AM,48.2,33.8,58,30.02,10.0,SSE,3.5,-,N/A,,Clear,160,2013-06-20 11:35:00
5:55 AM,46.4,30.2,53,30.02,10.0,NW,3.5,-,N/A,,Clear,310,2013-06-20 11:55:00
6:15 AM,48.2,30.2,50,30.03,10.0,Calm,Calm,-,N/A,,Clear,0,2013-06-20 12:15:00
6:55 AM,48.2,37.4,66,30.03,15.0,SSE,5.8,-,N/A,,Partly Cloudy,160,2013-06-20 12:55:00
8:55 AM,53.6,35.6,51,30.05,15.0,ESE,6.9,-,N/A,,Partly Cloudy,120,2013-06-20 14:55:00
9:56 AM,55.4,35.6,47,30.05,15.0,Calm,Calm,-,N/A,,Partly Cloudy,0,2013-06-20 15:56:00
10:57 AM,62.6,32.0,32,30.03,10.0,WNW,6.9,-,N/A,,Clear,290,2013-06-20 16:57:00
11:59 AM,64.4,30.2,28,30.01,15.0,Variable,5.8,-,N/A,,Clear,0,2013-06-20 17:59:00
12:47 PM,66.2,33.8,30,30.00,15.0,WNW,9.2,-,N/A,,Clear,300,2013-06-20 18:47:00
1:47 PM,68.0,33.8,28,29.99,15.0,West,8.1,-,N/A,,Partly Cloudy,280,2013-06-20 19:47:00
3:48 PM,73.4,30.2,20,29.95,15.0,West,8.1,-,N/A,,Partly Cloudy,280,2013-06-20 21:48:00
4:59 PM,75.2,32.0,21,29.93,15.0,NW,11.5,-,N/A,,Partly Cloudy,310,2013-06-20 22:59:00
5:47 PM,75.2,37.4,25,29.93,15.0,WNW,12.7,-,N/A,,Partly Cloudy,290,2013-06-20 23:47:00
6:52 PM,73.4,41.0,31,29.92,15.0,WNW,17.3,-,N/A,,Clear,300,2013-06-21 00:52:00
7:55 PM,69.8,39.2,33,29.91,15.0,WNW,12.7,-,N/A,,Clear,300,2013-06-21 01:55:00
8:49 PM,66.2,39.2,37,29.91,15.0,WNW,15.0,-,N/A,,Clear,300,2013-06-21 02:49:00
9:15 PM,66.2,35.6,32,29.90,10.0,NW,17.3,-,N/A,,Clear,320,2013-06-21 03:15:00
9:35 PM,66.2,37.4,35,29.90,10.0,NW,15.0,-,N/A,,Clear,320,2013-06-21 03:35:00
9:55 PM,64.4,37.4,37,29.91,10.0,NNW,5.8,-,N/A,,Clear,340,2013-06-21 03:55:00
10:15 PM,64.4,37.4,37,29.92,10.0,NNW,8.1,-,N/A,,Clear,330,2013-06-21 04:15:00
10:35 PM,64.4,35.6,34,29.92,10.0,NW,11.5,-,N/A,,Clear,320,2013-06-21 04:35:00
10:55 PM,62.6,37.4,39,29.92,10.0,NNW,6.9,-,N/A,,Clear,340,2013-06-21 04:55:00
11:15 PM,60.8,39.2,45,29.93,10.0,North,3.5,-,N/A,,Clear,10,2013-06-21 05:15:00
11:35 PM,60.8,37.4,42,29.92,10.0,Calm,Calm,-,N/A,,Clear,0,2013-06-21 05:35:00
11:55 PM,59.0,37.4,45,29.92,10.0,SE,5.8,-,N/A,,Clear,130,2013-06-21 05:55:00